Location: Lasqueti Island Observatory
(49.4855°N, 124.2726°W)
Time: 17:04:03
(UTC-07:00)

Daily predictions for brighter satellites

Satellite Brightness Start Highest point End
(mag) Time Altitude Azimuth Time Altitude Azimuth Time Altitude Azimuth
SeaSat 1 2.6 21:45:20 10° SSE 21:50:17 82° WSW 21:55:16 10° NNW
SPOT 1/Viking Rocket 3.9 21:46:58 10° SE 21:51:59 53° ENE 21:57:00 10° N
CZ-4B R/B 4.0 21:50:07 10° NNE 21:54:53 40° E 21:59:44 10° SSE
Cosmos 1461 4.4 21:53:49 10° NW 21:57:38 30° WSW 22:01:17 10° S
Cosmos 2237 Rocket 4.4 21:58:30 10° WSW 22:03:28 31° NW 22:08:28 10° NNE
Cosmos 1238 4.2 22:03:22 10° S 22:06:23 56° E 22:09:23 10° NNE
Cosmos 2369 Rocket 2.2 22:14:12 10° NNW 22:19:55 89° ENE 22:25:15 12° SSE
ARGOS 3.2 22:14:57 10° SSE 22:20:21 74° ENE 22:25:48 10° NNW
Cosmos 1602 Rocket 4.3 22:16:12 10° SSW 22:20:37 56° WNW 22:25:02 10° N
ISS -2.4 22:20:10 10° SSW 22:22:58 26° SE 22:25:46 10° E
Tsikada Rocket 4.3 22:18:07 10° SSW 22:24:31 74° W 22:30:55 10° N
Cosmos 1825 Rocket 3.7 22:20:54 10° S 22:25:16 59° E 22:29:38 10° NNE
CZ-4C R/B 3.7 22:22:05 12° SSE 22:25:52 58° ENE 22:29:49 10° N
ATLAS 3B R/B 3.3 22:21:00 10° S 22:28:05 42° ESE 22:35:00 10° NE
ATLAS CENTAUR R/B 4.2 22:24:54 10° W 22:29:15 28° NNW 22:33:35 10° NNE
SL-8 R/B 3.7 22:26:45 10° W 22:31:36 80° S 22:36:28 10° E
SL-16 R/B 3.9 22:26:46 10° WSW 22:32:00 37° NW 22:37:15 10° NNE
Envisat 4.3 22:28:11 10° SSW 22:32:52 38° W 22:37:36 10° NNW
Atlas Centaur 2 4.3 22:28:58 10° SW 22:34:03 19° S 22:38:00 13° SE
NOAA 11 4.2 22:31:39 11° SSE 22:36:53 90° ENE 22:42:21 10° NNW
Cosmos 407 Rocket 4.0 22:31:59 10° S 22:36:55 42° ESE 22:41:49 10° NE
CZ-4 R/B 4.0 22:32:03 10° NNE 22:37:01 66° ESE 22:42:00 10° S
Cosmos 1953 3.4 22:36:11 10° N 22:39:48 32° ENE 22:42:23 16° SE
USA 234 3.7 22:35:50 13° SSE 22:41:33 52° SW 22:47:57 10° WNW
SL-08 RB Rocket 3.7 22:37:33 13° SSE 22:41:40 86° WSW 22:46:14 10° NNW
Lacrosse 5 rocket 3.0 22:39:28 10° W 22:43:12 37° NNW 22:47:08 10° NE
Cosmos 1515 4.2 22:40:18 10° SSW 22:44:07 63° WNW 22:47:59 10° N
Cosmos 2263 4.2 22:40:40 10° NNW 22:46:18 81° WSW 22:50:53 16° SSE
SPOT 5 4.4 22:45:24 10° SSW 22:49:04 26° W 22:52:45 10° NW
Landsat 7 3.8 22:45:23 15° SSE 22:49:19 84° ENE 22:54:07 10° NNW
Meteor 1-22 Rocket 4.4 22:46:20 10° NNW 22:51:52 76° W 22:57:03 13° S
Spot 4 4.2 22:48:23 17° SE 22:51:55 54° ENE 22:56:37 10° N
YAOGAN 6 4.0 22:49:03 10° SSW 22:52:30 35° W 22:56:00 10° NNW
COSMOS 2406 4.5 22:51:29 16° SE 22:54:11 23° E 22:58:31 10° NE
Cosmos 1634 Rocket 4.4 22:51:46 10° NNW 22:57:51 61° W 23:03:53 10° S
COSMOS 2455 3.0 22:54:16 10° SW 23:00:16 77° NW 23:06:21 10° NE
Cosmos 1066 Rocket 4.4 22:55:11 10° SSW 23:00:54 78° WNW 23:06:47 10° N
Lacrosse 5 3.5 22:58:16 10° WNW 23:02:55 35° N 23:07:34 10° ENE
Cosmos 1346 Rocket 2.8 22:59:54 11° SSW 23:03:38 81° WNW 23:07:36 10° N
Terra 1.8 23:01:40 19° SSE 23:05:07 84° ENE 23:09:55 10° NNW
IGS 5A 3.4 23:04:04 21° SSE 23:06:49 79° ENE 23:11:00 10° NNW
Cosmos 2084 3.4 23:04:18 10° NW 23:08:24 81° NE 23:11:08 22° SE
Cosmos 1953 Rocket 3.9 23:07:02 10° SSW 23:11:24 66° WNW 23:15:51 10° N
SAR-Lupe-2 3.9 23:14:02 22° S 23:16:13 60° WSW 23:19:47 10° NNW
Cosmos 1842 3.2 23:14:45 22° S 23:17:12 72° E 23:21:07 10° NNE
Cosmos 489 Rocket 4.5 23:12:12 10° SSW 23:18:34 85° ESE 23:24:59 10° NNE
Cosmos 2221 4.3 23:16:06 10° NNE 23:19:25 21° ENE 23:21:43 14° ESE
Lacrosse 4 Rocket 1.2 23:15:44 10° SSW 23:19:47 77° ESE 23:23:55 10° NE
Cosmos 2279 Rocket 4.2 23:14:51 10° NNW 23:21:04 68° W 23:26:09 16° S
Geosat 3.9 23:16:21 10° NNE 23:21:25 78° ESE 23:26:28 10° SSW
H-2A R/B 2.2 23:18:56 19° S 23:22:29 67° WSW 23:27:34 10° NNW
Cosmos-2242 3.1 23:18:15 10° NNW 23:22:40 77° W 23:25:25 23° S
Cosmos 1943 3.5 23:18:25 10° SW 23:24:05 71° WNW 23:29:49 10° NNE
Cosmos 1943 Rocket 2.2 23:18:44 10° NNW 23:24:17 73° WSW 23:27:52 23° SSE
Cosmos 1758 3.3 23:21:34 10° N 23:25:43 88° W 23:27:57 26° S
Cosmos 1570 Rocket 4.1 23:21:44 10° NNW 23:27:08 81° ENE 23:30:26 24° SSE
Cosmos 1900 4.3 23:25:51 10° SSW 23:30:59 76° SE 23:36:09 10° NE
Meteor 1-21 4.5 23:28:09 11° SSW 23:33:43 72° WNW 23:39:34 10° N
Cosmos 1656 Rocket 3.7 23:33:25 10° NNW 23:39:09 78° ENE 23:42:37 25° SE
Cosmos 1733 4.1 23:36:41 10° N 23:40:20 37° ENE 23:41:50 26° ESE
SL-23 DEB 4.3 23:36:12 10° SW 23:40:49 38° SSE 23:44:01 10° E
DMSP B5D2-2 4.1 23:38:36 10° NNE 23:43:55 82° WNW 23:48:02 17° SSW
Cosmos 1607 4.5 23:40:55 24° SSE 23:43:59 38° ESE 23:49:39 10° NE
Cosmos 676 Rocket 4.3 23:42:20 10° SSW 23:47:40 71° WNW 23:53:01 10° NNE
Meteor 2-5 Rocket 4.3 23:48:01 25° SSE 23:51:00 46° E 23:56:28 10° NNE
Cosmos 1140 Rocket 3.5 23:48:52 24° S 23:52:05 69° ESE 23:57:20 10° NNE
COSMOS 2487 3.4 23:55:28 31° ESE 23:55:47 31° ESE 23:59:02 10° NE
